GW5292 Weather Reports


Display with metric or nautical units.
time (UTC)temp
F
wind
direction
speed
MPH
gust
MPH
rain 1hr
in
rain 24hr
in
rain mn
in
humidity
%
barometer
mb
20260904070043 72 42 0.0 0.0 0.00 0.52 0.00 96 1011.7
20260904064508 72 42 0.0 0.0 0.00 0.52 0.00 96 1011.7
20260904063016 72 41 0.0 0.0 0.00 0.52 0.00 95 1011.3
20260904061524 73 41 0.0 0.0 0.00 0.52 0.00 96 1011.6
20260904060032 73 41 0.0 0.0 0.00 0.52 0.00 96 1011.8
20260904054533 73 41 0.0 0.0 0.00 0.52 0.00 96 1011.8
20260904053013 73 41 0.0 0.0 0.00 0.52 0.00 95 1012.1
20260904051517 74 41 0.0 0.0 0.00 0.58 0.00 95 1012.2
20260904050026 74 42 0.0 0.0 0.00 0.84 0.00 95 1012.3
20260904044535 74 42 0.0 0.0 0.17 1.09 0.00 95 1012.3
20260904043035 75 42 0.0 0.0 0.20 1.21 0.00 94 1012.5
20260904041516 75 42 0.0 3.0 0.20 1.21 0.00 94 1012.5
20260904040023 76 338 0.0 2.0 0.20 1.21 0.00 92 1012.8
20260904034544 77 212 3.0 5.0 0.03 1.04 1.04 88 1013.2
20260904033034 76 208 0.0 2.0 0.00 1.01 1.01 87 1012.7
20260904031534 76 208 0.0 0.0 0.00 1.01 1.01 88 1013.1
20260904030020 76 208 0.0 1.0 0.00 1.01 1.01 88 1013.2
20260904024526 76 208 0.0 1.0 0.00 1.01 1.01 89 1013.3
20260904023029 76 208 0.0 1.0 0.00 1.01 1.01 88 1012.9
20260904021531 77 208 0.0 0.0 0.00 1.01 1.01 86 1012.9
20260904020036 78 208 0.0 0.0 0.00 1.01 1.01 84 1013.0
20260904014523 78 208 0.0 2.0 0.00 1.01 1.01 83 1013.4
20260904013027 79 208 0.0 0.0 0.00 1.01 1.01 81 1013.5
20260904011557 79 208 1.0 3.0 0.00 1.01 1.01 81 1013.3
20260904010036 78 213 1.0 2.0 0.00 1.01 1.01 82 1013.5
20260904004532 79 208 0.0 2.0 0.00 1.01 1.01 82 1013.5
20260904003027 79 208 1.0 2.0 0.00 1.01 1.01 81 1013.7
20260904001506 79 213 0.0 2.0 0.00 1.01 1.01 80 1013.6
20260904000013 79 200 1.0 2.0 0.00 1.01 1.01 80 1013.0
20260903234534 79 200 0.0 0.0 0.00 1.01 1.01 81 1012.9
20260903233026 80 200 0.0 2.0 0.00 1.01 1.01 79 1013.2
20260903231527 80 200 1.0 2.0 0.00 1.01 1.01 80 1013.0
20260903230012 81 199 0.0 0.0 0.00 1.01 1.01 79 1013.1
20260903224511 82 199 0.0 1.0 0.00 1.01 1.01 76 1013.2
20260903223017 83 199 0.0 2.0 0.00 1.01 1.01 73 1012.8
20260903221524 84 198 1.0 3.0 0.00 1.01 1.01 71 1012.5
20260903220031 84 213 2.0 4.0 0.00 1.01 1.01 71 1012.8
20260903214509 85 194 1.0 3.0 0.00 1.01 1.01 71 1012.5
20260903213019 85 208 0.0 2.0 0.00 1.01 1.01 70 1012.4
20260903211521 86 208 1.0 3.0 0.00 1.01 1.01 67 1012.1
20260903210027 86 9 0.0 2.0 0.00 1.01 1.01 67 1012.2
20260903204530 86 153 0.0 2.0 0.00 1.01 1.01 68 1012.4
20260903203026 86 189 0.0 3.0 0.00 1.02 1.01 69 1012.5
20260903201531 85 212 2.0 3.0 0.00 1.02 1.01 68 1012.6
20260903200025 84 165 1.0 3.0 0.00 1.02 1.01 71 1012.8
20260903194530 83 194 1.0 3.0 0.00 1.02 1.01 71 1013.0
20260903193017 83 180 1.0 5.0 0.00 1.02 1.01 70 1013.1
20260903191515 84 234 3.0 5.0 0.00 1.02 1.01 68 1013.3
20260903190026 84 195 2.0 6.0 0.00 1.02 1.01 69 1013.5
20260903184531 84 222 4.0 5.0 0.00 1.02 1.01 70 1013.6
20260903183039 83 188 2.0 6.0 0.00 1.02 1.01 70 1013.8
20260903181515 83 190 3.0 7.0 0.00 1.02 1.01 70 1014.1
20260903180006 83 185 2.0 7.0 0.00 1.02 1.01 73 1014.1
20260903174505 82 191 4.0 7.0 0.00 1.02 1.01 72 1014.4
20260903173006 82 198 2.0 6.0 0.00 1.02 1.01 75 1014.3
20260903171509 82 130 2.0 5.0 0.00 1.03 1.01 77 1014.5
20260903170018 81 202 3.0 6.0 0.00 1.04 1.01 76 1014.8
20260903164505 80 181 5.0 7.0 0.00 1.07 1.01 78 1014.9
20260903163005 79 183 4.0 6.0 0.00 1.08 1.01 80 1015.2
20260903161507 79 158 4.0 7.0 0.00 1.08 1.01 80 1015.4
20260903160014 79 199 2.0 7.0 0.00 1.08 1.01 83 1015.5
20260903154523 77 196 3.0 5.0 0.00 1.08 1.01 88 1015.7
20260903153003 75 194 4.0 5.0 0.00 1.08 1.01 88 1016.0
20260903151506 75 182 2.0 3.0 0.00 1.08 1.01 90 1016.5
20260903150023 74 185 1.0 4.0 0.00 1.08 1.01 91 1016.4
20260903144538 74 202 1.0 4.0 0.00 1.08 1.01 1016.2
20260903143035 73 194 2.0 4.0 0.00 1.08 1.01 93 1016.6
20260903141504 73 191 1.0 3.0 0.00 1.08 1.01 94 1016.6
20260903140015 73 187 2.0 3.0 0.00 1.08 1.01 94 1016.3
20260903134514 72 223 2.0 3.0 0.00 1.08 1.01 94 1016.0
20260903133026 72 203 2.0 4.0 0.00 1.08 1.01 95 1015.7
20260903131528 71 182 2.0 4.0 0.00 1.08 1.01 97 1015.9
20260903130008 70 175 2.0 3.0 0.00 1.08 1.01 97 1015.7
20260903124513 69 215 1.0 2.0 0.00 1.08 1.01 97 1016.0
20260903123017 69 205 2.0 3.0 0.00 1.08 1.01 97 1016.2
20260903121532 69 190 1.0 3.0 0.00 1.08 1.01 97 1016.1
20260903120045 69 205 1.0 2.0 0.01 1.08 1.01 97 1015.7
20260903114514 69 239 0.0 2.0 0.01 1.08 1.01 97 1015.7
20260903113022 68 270 0.0 2.0 0.01 1.08 1.01 97 1015.4
20260903111524 68 270 0.0 3.0 0.02 1.08 1.01 97 1014.7
20260903110032 68 194 2.0 5.0 0.03 1.07 1.00 97 1015.0
20260903104552 68 200 2.0 5.0 0.04 1.07 1.00 97 1016.2
20260903103016 68 196 2.0 3.0 0.04 1.07 1.00 97 1016.5
20260903101529 68 209 2.0 3.0 0.03 1.05 0.99 97 1017.2
20260903100036 68 192 0.0 2.0 0.01 1.04 0.97 97 1017.4
20260903094547 68 192 0.0 3.0 0.01 1.03 0.96 97 1016.7
20260903093036 68 200 0.0 2.0 0.05 1.03 0.96 97 1016.6
20260903091523 68 196 1.0 2.0 0.08 1.03 0.96 97 1016.8
20260903090003 68 33 1.0 3.0 0.11 1.03 0.96 97 1015.8
20260903084507 68 348 1.0 2.0 0.14 1.02 0.95 97 1016.5
20260903083011 68 236 0.0 2.0 0.13 0.98 0.91 97 1016.4
20260903081515 67 352 0.0 1.0 0.16 0.95 0.88 97 1016.6
20260903080025 68 352 0.0 2.0 0.16 0.92 0.85 97 1017.2
20260903074505 67 179 0.0 2.0 0.12 0.88 0.81 97 1017.3
20260903073008 67 179 0.0 3.0 0.09 0.85 0.78 96 1017.6
20260903071514 67 167 0.0 2.0 0.03 0.79 0.72 96 1018.7